x

South Santa Rosa Is. Ca (46069) Wave Buoy

10:50am - Tue 24th May 2016 All times are PDT. -7 hours from GMT.

  • Sig Wave height 3.0ft
  • Swell Direction
  • Peak Period 15s
  • Average Period 6s
  • Wind
    4mph
  • Sea Temp 59°f
  • Air Temp 57°f
  • Sea Pressure 1016.9mb
  • South Santa Rosa Is. Ca
  • South Santa Rosa Is. Ca

More Historic Weather Station data

Upgrade to MSW Pro to gain access to the past 30 days of data for over 8000 Wavebouys and Weather Stations around the globe.

Join Pro

Comparision Forecast

View Surf forecast
   
Tue 05/24 10:50am 3ft 15s 6s 4
mph
1016.9mb 59f 57f
9:50am 2.5ft 15s 5s 7 9 mph 1016.5mb 59f 56f
8:50am 3ft 16s 5s 7 9 mph 1016.1mb 59f 56f
7:50am 3ft 15s 5s 9 11 mph 1015.4mb 59f 56f
6:50am 3.5ft 5s 5s 11 13 mph 1014.8mb 58f 56f
5:50am 3.5ft 16s 5s 11 13 mph 1014.4mb 58f 56f
4:50am 3.5ft 5s 5s 11 16 mph 1014.1mb 58f 56f
3:50am 3.5ft 13s 5s 13 18 mph 1013.9mb 58f 57f
2:50am 3.5ft 6s 5s 16 20 mph 1013.6mb 58f 56f
1:50am 4ft 6s 5s 13 18 mph 1013.8mb 58f 56f
12:50am 4.5ft 6s 5s 16 18 mph 1014.1mb 58f 57f
Mon 05/23 11:50pm 4.5ft 6s 5s 16 20 mph 1013.8mb 58f 57f
10:50pm 4.5ft 6s 5s 16 20 mph 1014mb 58f 57f
9:50pm 4.5ft 6s 5s 18 22 mph 1013.7mb 58f 57f
8:50pm 4.5ft 6s 5s 18 22 mph 1013.2mb 58f 57f
7:50pm 4.5ft 6s 5s 18 22 mph 1013mb 58f 57f
6:50pm 4.5ft 6s 5s 20 22 mph 1013mb 58f 57f
5:50pm 4.5ft 6s 5s 20 22 mph 1013.3mb 58f 58f
3:50pm 5ft 6s 5s 20 22 mph 1014mb 58f 57f
2:50pm 5ft 6s 5s 20 22 mph 1014.5mb 57f 57f
1:50pm 5ft 6s 5s 18 22 mph 1014.7mb 58f 57f
12:50pm 5ft 6s 5s 20 25 mph 1014.8mb 58f 56f
11:50am 5.5ft 6s 5s 22 27 mph 1014.8mb 58f 56f
10:50am 6ft 6s 5s 22 27 mph 1014.8mb 58f 56f
9:50am 6ft 6s 5s 25 29 mph 1014.6mb 58f 56f
8:50am 6ft 6s 5s 25 29 mph 1014.4mb 58f 56f
7:50am 6ft 6s 5s 27 31 mph 1014mb 58f 56f
6:50am 6ft 6s 5s 25 31 mph 1013.8mb 57f 56f
5:50am 6ft 6s 5s 27 34 mph 1013.5mb 58f 56f
4:50am 6ft 6s 6s 27 34 mph 1013.4mb 58f 56f
3:50am 6.5ft 6s  -  27 31 mph 1013.7mb 58f 56f
2:50am 6ft 6s 5s 25 31 mph 1013.9mb 59f 57f
1:50am 6ft 6s 5s 27 34 mph 1014.2mb 59f 57f
12:50am 6ft 6s 5s 25 29 mph 1015.1mb 59f 57f
Sun 05/22 11:50pm 6ft 6s 5s 25 31 mph 1015.6mb 59f 57f
10:50pm 6ft 6s 5s 25 31 mph 1015.7mb 59f 57f
9:50pm 6ft 6s 5s 25 29 mph 1015.6mb 59f 57f
8:50pm 6ft 11s 6s 27 31 mph 1015.2mb 59f 57f
7:50pm 6ft 11s 6s 25 29 mph 1015.1mb 59f 57f
6:50pm 6ft 11s 6s 22 27 mph 1015.3mb 59f 58f
5:50pm 5ft 10s 5s 25 29 mph 1015.9mb 59f 58f
4:50pm 5ft 5s 5s 22 27 mph 1016.4mb 59f 58f
3:50pm 5ft 11s 5s 22 27 mph 1017.1mb 59f 57f
2:50pm 5.5ft 11s 5s 22 27 mph 1017.6mb 59f 57f
1:50pm 5ft 9s 5s 20 25 mph 1018mb 59f 57f
12:50pm 5ft 11s 5s 22 27 mph 1018.4mb 59f 57f
11:50am 5ft 11s 5s 22 27 mph 1018.9mb 59f 57f
10:50am 5.5ft 13s 5s 22 25 mph 1018.8mb 59f 56f
9:50am 5ft 10s 5s 22 27 mph 1018.7mb 59f 56f
8:50am 6ft 11s 5s 22 27 mph 1018.6mb 59f 56f
7:50am 6ft 9s 5s 22 27 mph 1018.4mb 59f 56f
6:50am 5.5ft 10s 5s 25 29 mph 1017.9mb 59f 56f
5:50am 5ft 11s 6s 25 29 mph 1017.4mb 59f 56f
4:50am 5.5ft 10s 6s 22 27 mph 1017.5mb 59f 56f
3:50am 5.5ft 10s 6s 22 27 mph 1017.5mb 59f 56f
2:50am 5.5ft 10s 6s 22 25 mph 1017.5mb 59f 57f
1:50am 6ft 10s 6s 22 25 mph 1017.8mb 59f 56f
12:50am 5.5ft 10s 6s 22 27 mph 1018mb 59f 57f
Sat 05/21 11:50pm 5ft 10s 6s 20 25 mph 1018.2mb 59f 57f
10:50pm 6ft 10s 6s 20 25 mph 1018.3mb 59f 57f
9:50pm 5ft 10s 6s 20 22 mph 1018.3mb 59f 57f
8:50pm 6ft 10s 6s 18 20 mph 1018mb 59f 57f
7:50pm 5.5ft 10s 6s 18 22 mph 1017.7mb 59f 58f
6:50pm 5.5ft 9s 6s 20 22 mph 1017.6mb 58f 58f
5:50pm 6ft 10s 7s 20 22 mph 1017.4mb 59f 58f
4:50pm 5.5ft 10s 6s 22 25 mph 1017mb 59f 58f
3:50pm 6ft 11s 7s 20 25 mph 1017.2mb 59f 57f
2:50pm 7ft 11s 7s 18 20 mph 1017.4mb 58f 57f
1:50pm 6ft 10s 6s 20 25 mph 1017.2mb 58f 57f
12:50pm 6ft 9s 7s 18 20 mph 1017.4mb 58f 56f
11:50am 6ft 10s 6s 18 20 mph 1017.3mb 58f 56f
10:50am 6ft 10s 7s 18 22 mph 1016.9mb 58f 56f
9:50am 6ft 10s 6s 18 22 mph 1016.5mb 58f 56f
8:50am 6.5ft 10s 6s 20 22 mph 1016.2mb 58f 56f
7:50am 6.5ft 11s 6s 20 25 mph 1015.6mb 58f 56f
6:50am 6.5ft 10s 6s 20 22 mph 1015.2mb 58f 56f
5:50am 7ft 10s 7s 20 25 mph 1014.7mb 58f 56f
4:50am 6.5ft 15s 7s 20 25 mph 1014.6mb 58f 56f
3:50am 6.5ft 10s 7s 18 22 mph 1014.7mb 58f 56f
2:50am 7ft 11s 7s 20 25 mph 1014.6mb 58f 56f
1:50am 7ft 10s 7s 20 25 mph 1014.7mb 58f 56f
12:50am 7ft 10s 7s 18 22 mph 1015mb 58f 56f
Fri 05/20 11:50pm 7.5ft 10s 7s 20 25 mph 1014.9mb 58f 56f
10:50pm 8ft 11s 7s 20 25 mph 1014.8mb 58f 57f
9:50pm 7ft 11s 7s 20 25 mph 1014.3mb 58f 57f
8:50pm 8ft 10s 7s 20 25 mph 1013.8mb 58f 57f
7:50pm 8.5ft 11s 7s 22 27 mph 1013.2mb 58f 57f